{"data":{"norad_id":69241,"epoch":"2026-09-19T23:01:31.391040Z","epoch_age_seconds":73668,"freshness":"FRESH","line1":"1 69241U 26117D   26262.95939110  .00014334  00000+0  43456-3 0  9993","line2":"2 69241  53.1588 156.2980 0001593  80.7396 279.3787 15.34399145 17584","mean_motion":15.34399145,"eccentricity":0.0001593,"inclination_deg":53.1588,"raan_deg":156.298,"arg_perigee_deg":80.7396,"mean_anomaly_deg":279.3787,"bstar":0.00043456,"rev_number":1758,"period_min":93.847810375311,"perigee_km":461.61603519338,"apogee_km":463.79552770355,"semimajor_km":6840.8427814485,"source":"CELESTRAK","updated_at":"2026-09-20T09:00:44.147848Z"}}